Date String (YYYY-MM-DD hh:mm:ss) UTC,Instrument flags,Ambient pressure (hPa),Sample flow (lpm),Bypass flow (lpm),Sample temperature (°C),Ambient temperature (°C),ASC tube jacket temperature (°C),LED temperature (°C),Box temperature (°C),Sample RH (%),Span deviation,Mass concentration (μg/m³),Mass concentration (μg/m³),Mass concentration (μg/m³)
DateTimeUTC,F1_M11,P_M11,Q1_M11,Q2_M11,T1_M11,T2_M11,T3_M11,T4_M11,T5_M11,U1_M11,ZSPAN_M11,X0_M11,X2_M11,X1_M11
2022-12-27 04:00:00,,0824.0,4.97,0.00,22.0,20.6,00.0,30.9,23.7,16.0,0000.0,0000.48,0000.25,0000.19
2022-12-27 04:01:00,,0824.0,4.98,0.00,22.0,20.6,00.0,30.9,23.8,16.1,0000.0,0000.48,0000.25,0000.19
2022-12-27 04:02:00,,0824.0,5.01,0.00,22.0,20.6,00.0,31.0,23.7,16.1,0000.0,0000.51,0000.26,0000.19
2022-12-27 04:03:00,,0823.9,5.02,0.00,22.0,20.6,00.0,31.0,23.8,15.8,0000.0,0000.41,0000.26,0000.19
2022-12-27 04:04:00,,0823.9,5.02,0.00,22.0,20.6,00.0,30.9,23.8,15.7,0000.0,0000.44,0000.27,0000.18
2022-12-27 04:05:00,,0824.0,5.00,0.00,22.0,20.6,00.0,30.9,23.8,15.8,0000.0,0000.50,0000.28,0000.19
2022-12-27 04:06:00,,0824.0,4.97,0.00,22.0,20.6,00.0,30.9,23.7,15.9,0000.0,0000.50,0000.28,0000.19
2022-12-27 04:07:00,,0824.0,4.98,0.00,22.0,20.6,00.0,30.9,23.7,16.0,0000.0,0000.49,0000.27,0000.18
2022-12-27 04:08:00,,0824.0,5.02,0.00,22.0,20.6,00.0,30.9,23.7,15.5,0000.0,0000.60,0000.29,0000.18
2022-12-27 04:09:00,,0823.9,5.02,0.00,22.0,20.6,00.0,30.9,23.7,15.6,0000.0,0000.56,0000.27,0000.18
2022-12-27 04:10:00,,0823.8,5.01,0.00,22.0,20.6,00.0,30.9,23.6,15.6,0000.0,0000.53,0000.26,0000.18
2022-12-27 04:11:00,,0823.7,4.98,0.00,22.0,20.6,00.0,30.9,23.7,15.2,0000.0,0000.54,0000.27,0000.19
2022-12-27 04:12:00,,0823.7,4.98,0.00,21.9,20.6,00.0,30.9,23.6,15.3,0000.0,0000.57,0000.28,0000.19
2022-12-27 04:13:00,,0823.7,5.04,0.00,21.9,20.6,00.0,30.9,23.7,15.6,0000.0,0000.65,0000.28,0000.19
2022-12-27 04:14:00,,0823.7,5.02,0.00,21.9,20.6,00.0,30.9,23.7,15.2,0000.0,0000.67,0000.27,0000.19
2022-12-27 04:15:00,,0823.7,5.00,0.00,21.9,20.6,00.0,30.9,23.7,15.3,0000.0,0000.66,0000.27,0000.19
2022-12-27 04:16:00,,0823.7,4.97,0.00,21.9,20.6,00.0,30.9,23.7,15.2,0000.0,0000.58,0000.25,0000.19
2022-12-27 04:17:00,,0823.7,5.03,0.00,21.9,20.6,00.0,30.9,23.7,15.4,0000.0,0000.61,0000.27,0000.19
2022-12-27 04:18:00,,0823.6,5.02,0.00,21.9,20.6,00.0,30.9,23.6,15.7,0000.0,0000.62,0000.27,0000.19
2022-12-27 04:19:00,,0823.5,4.96,0.00,21.9,20.6,00.0,30.9,23.7,15.6,0000.0,0000.49,0000.25,0000.18
2022-12-27 04:20:00,,0823.5,4.97,0.00,21.9,20.5,00.0,30.8,23.7,15.6,0000.0,0000.49,0000.24,0000.18
2022-12-27 04:21:00,,0823.5,5.02,0.00,21.9,20.5,00.0,30.8,23.7,15.4,0000.0,0000.51,0000.26,0000.18
2022-12-27 04:22:00,,0823.6,5.01,0.00,21.9,20.5,00.0,30.8,23.7,15.5,0000.0,0000.48,0000.24,0000.18
2022-12-27 04:23:00,,0823.4,5.03,0.00,21.9,20.6,00.0,30.8,23.6,15.4,0000.0,0000.46,0000.23,0000.18
2022-12-27 04:24:00,,0823.6,4.98,0.00,21.9,20.6,00.0,30.8,23.7,15.2,0000.0,0000.34,0000.22,0000.18
2022-12-27 04:25:00,,0823.7,4.97,0.00,21.9,20.5,00.0,30.8,23.6,15.3,0000.0,0000.32,0000.22,0000.17
2022-12-27 04:26:00,,0823.7,5.00,0.00,21.9,20.5,00.0,30.8,23.5,15.5,0000.0,0000.34,0000.24,0000.17
2022-12-27 04:27:00,,0823.7,5.01,0.00,21.8,20.5,00.0,30.8,23.5,15.6,0000.0,0000.35,0000.24,0000.17
2022-12-27 04:28:00,,0823.7,5.01,0.00,21.8,20.5,00.0,30.8,23.5,15.5,0000.0,0000.36,0000.24,0000.17
2022-12-27 04:29:00,,0823.7,4.96,0.00,21.8,20.5,00.0,30.8,23.4,15.5,0000.0,0000.44,0000.26,0000.17
2022-12-27 04:30:00,,0823.7,4.98,0.00,21.8,20.5,00.0,30.8,23.5,15.6,0000.0,0000.46,0000.27,0000.18
2022-12-27 04:31:00,,0823.7,5.01,0.00,21.8,20.5,00.0,30.8,23.4,15.5,0000.0,0000.46,0000.27,0000.17
2022-12-27 04:32:00,,0823.6,5.02,0.00,21.8,20.5,00.0,30.8,23.5,15.5,0000.0,0000.44,0000.25,0000.17
2022-12-27 04:33:00,,0823.6,5.03,0.00,21.8,20.5,00.0,30.7,23.5,15.5,0000.0,0000.44,0000.25,0000.16
2022-12-27 04:34:00,,0823.6,5.00,0.00,21.8,20.5,00.0,30.7,23.4,15.3,0000.0,0000.44,0000.25,0000.17
2022-12-27 04:35:00,,0823.5,4.96,0.00,21.7,20.5,00.0,30.7,23.4,15.4,0000.0,0000.44,0000.25,0000.16
2022-12-27 04:36:00,,0823.6,5.00,0.00,21.7,20.4,00.0,30.7,23.4,15.5,0000.0,0000.43,0000.24,0000.17
2022-12-27 04:37:00,,0823.4,5.02,0.00,21.7,20.4,00.0,30.7,23.4,15.3,0000.0,0000.40,0000.23,0000.17
2022-12-27 04:38:00,,0823.3,5.03,0.00,21.7,20.4,00.0,30.7,23.3,15.3,0000.0,0000.38,0000.22,0000.16
2022-12-27 04:39:00,,0823.3,4.99,0.00,21.7,20.4,00.0,30.7,23.4,15.5,0000.0,0000.35,0000.21,0000.17
2022-12-27 04:40:00,,0823.4,4.98,0.00,21.7,20.4,00.0,30.7,23.4,15.5,0000.0,0000.28,0000.19,0000.17
2022-12-27 04:41:00,,0823.4,5.00,0.00,21.7,20.5,00.0,30.7,23.4,15.6,0000.0,0000.30,0000.20,0000.17
2022-12-27 04:42:00,,0823.4,5.02,0.00,21.7,20.5,00.0,30.7,23.3,15.4,0000.0,0000.31,0000.20,0000.17
2022-12-27 04:43:00,,0823.3,5.02,0.00,21.7,20.5,00.0,30.7,23.4,15.4,0000.0,0000.36,0000.23,0000.18
2022-12-27 04:44:00,,0823.3,4.99,0.00,21.7,20.5,00.0,30.7,23.3,15.5,0000.0,0000.38,0000.24,0000.19
2022-12-27 04:45:00,,0823.4,4.96,0.00,21.7,20.5,00.0,30.7,23.4,15.4,0000.0,0000.38,0000.24,0000.19
2022-12-27 04:46:00,,0823.3,5.01,0.00,21.7,20.4,00.0,30.6,23.4,15.4,0000.0,0000.38,0000.24,0000.19
2022-12-27 04:47:00,,0823.3,5.03,0.00,21.6,20.4,00.0,30.6,23.4,15.3,0000.0,0000.40,0000.24,0000.19
2022-12-27 04:48:00,,0823.3,5.01,0.00,21.6,20.4,00.0,30.6,23.4,15.3,0000.0,0000.43,0000.25,0000.20
2022-12-27 04:49:00,,0823.3,5.00,0.00,21.6,20.4,00.0,30.6,23.3,15.3,0000.0,0000.44,0000.26,0000.20
2022-12-27 04:50:00,,0823.1,4.97,0.00,21.6,20.4,00.0,30.6,23.3,15.4,0000.0,0000.43,0000.26,0000.20
2022-12-27 04:51:00,,0823.1,4.99,0.00,21.6,20.4,00.0,30.6,23.3,15.5,0000.0,0000.41,0000.25,0000.19
2022-12-27 04:52:00,,0823.2,5.02,0.00,21.6,20.4,00.0,30.6,23.3,15.5,0000.0,0000.37,0000.23,0000.19
2022-12-27 04:53:00,,0823.1,5.02,0.00,21.6,20.4,00.0,30.6,23.3,15.4,0000.0,0000.37,0000.23,0000.19
2022-12-27 04:54:00,,0823.0,4.99,0.00,21.6,20.4,00.0,30.6,23.3,15.3,0000.0,0000.34,0000.22,0000.18
2022-12-27 04:55:00,,0823.0,4.97,0.00,21.6,20.4,00.0,30.6,23.3,15.2,0000.0,0000.31,0000.21,0000.18
2022-12-27 04:56:00,,0822.9,5.00,0.00,21.6,20.4,00.0,30.6,23.3,15.4,0000.0,0000.33,0000.21,0000.18
2022-12-27 04:57:00,,0823.0,5.02,0.00,21.6,20.4,00.0,30.6,23.3,15.2,0000.0,0000.35,0000.22,0000.18
2022-12-27 04:58:00,,0823.0,5.04,0.00,21.6,20.4,00.0,30.6,23.2,15.1,0000.0,0000.37,0000.23,0000.18
2022-12-27 04:59:00,,0823.0,4.98,0.00,21.6,20.4,00.0,30.6,23.2,15.3,0000.0,0000.35,0000.22,0000.18
